Back to catalog

SL-8 DEB

AliveLEO
NORAD 21155·DEBRIS·🇷🇺 Russia

Launched Feb 12, 1991 from Plesetsk Cosmodrome

Loading…

Next Passes (next 24 hours)

TLE

FreshSource: Space-Track

Epoch: Sep 14, 2026, 05:26 UTC

1 21155U 91009S   26257.22699030  .00000013  00000-0  24069-3 0  9994
2 21155  73.9271 341.8596 0144428 277.8847 108.7320 12.30740513598769

Track SL-8 DEB in real time with AllMySat

Download on the App Store